Flag for U.S.A. Weather past 2 weeks in Milwaukee, Wisconsin, U.S.A.

Now
75 °F

Clear.


Feels Like: 76 °F
Forecast: 69 / 82 °F
Wind: 5 mph from South

Location: Milwaukee / Timmerman

Current Time: Sep 3, 2015 at 12:10:30 AM

Latest Report: Sep 2, 2015 at 11:55 PM


Visibility: 10 mi

Pressure: 29.95 "Hg

Humidity: 78%

Dew point: 68 °F

Location of MilwaukeeLocation

Historic Weather in Milwaukee — Graph

°F

Milwaukee temperature yesterday

Maximum temperature yesterday: 88 °F (at 12:45 PM)
Minimum temperature yesterday: 70 °F (at 4:55 AM)
Average temperature yesterday: 76 °F

Past Weeks' High & Low Weather Summary

 TemperatureHumidityPressure
High88 °F (Sep 1, 12:45 PM)94% (Aug 26, 11:35 PM)30.23 "Hg (Aug 26, 11:35 PM)
Low50 °F (Aug 21, 5:35 AM)29% (Aug 27, 11:45 AM)29.61 "Hg (Aug 19, 5:15 AM)
Average64 °F75%29.99 "Hg
* Reported Aug 18 10:15 PM — Sep 2 10:15 PM, Milwaukee, Weather by CustomWeather, © 2015

Note: Actual official high and low records may vary slightly from our data, if they occured in-between our weather recording intervals... More about our weather records

Advertising

Milwaukee weather history for previous 24 hours

 ConditionsComfort  
Time TempWeatherWind HumidityBarometerVisibility
10:15 PM
Wed, Sep 2
77 °FMostly cloudy.5 mph74%29.96 "Hg10 mi
9:55 PM77 °FPartly cloudy.3 mph74%29.96 "Hg10 mi
9:35 PM77 °FPassing clouds.3 mph74%29.96 "Hg10 mi
9:15 PM77 °FPassing clouds.No wind69%29.96 "Hg10 mi
8:45 PM79 °FClear.No wind65%29.95 "Hg10 mi
7:45 PM79 °FSunny.6 mph65%29.93 "Hg10 mi
5:45 PM84 °FSunny.10 mph51%29.95 "Hg10 mi
4:45 PM84 °FScattered clouds.9 mph51%29.95 "Hg10 mi
3:45 PM86 °FSunny.9 mph49%29.96 "Hg10 mi
2:45 PM88 °FSunny.7 mph46%29.99 "Hg10 mi
1:45 PM88 °FBroken clouds.12 mph46%30.00 "Hg10 mi
12:45 PM88 °FSunny.12 mph46%30.01 "Hg10 mi
11:45 AM84 °FSunny.8 mph51%30.01 "Hg10 mi
10:45 AM82 °FSunny.9 mph55%30.02 "Hg10 mi
9:45 AM81 °FSunny.5 mph66%30.03 "Hg10 mi
8:45 AM77 °FSunny.6 mph69%30.03 "Hg10 mi
7:45 AM73 °FSunny.5 mph78%30.05 "Hg10 mi
7:15 AM72 °FPassing clouds.5 mph83%30.04 "Hg7 mi
6:55 AM70 °FPassing clouds.3 mph83%30.04 "Hg7 mi
6:35 AM70 °FClear.5 mph83%30.03 "Hg7 mi
6:15 AM70 °FClear.3 mph83%30.02 "Hg7 mi
5:55 AM70 °FClear.5 mph83%30.02 "Hg7 mi
5:35 AM70 °FClear.5 mph83%30.01 "Hg7 mi
5:15 AM70 °FClear.3 mph88%30.01 "Hg7 mi
4:55 AM70 °FPassing clouds.3 mph88%30.01 "Hg7 mi
4:35 AM72 °FPassing clouds.3 mph83%30.01 "Hg10 mi
4:15 AM72 °FPassing clouds.3 mph83%30.01 "Hg10 mi
3:55 AM72 °FPassing clouds.3 mph83%30.01 "Hg10 mi
3:35 AM72 °FPassing clouds.3 mph83%30.00 "Hg10 mi
3:15 AM72 °FPassing clouds.3 mph83%30.01 "Hg10 mi
2:55 AM72 °FClear.3 mph83%30.01 "Hg10 mi
2:35 AM72 °FClear.3 mph83%30.01 "Hg10 mi
2:15 AM72 °FClear.No wind83%30.01 "Hg10 mi
1:55 AM73 °FClear.6 mph78%30.01 "Hg10 mi
1:35 AM73 °FClear.5 mph78%30.01 "Hg10 mi
1:15 AM73 °FClear.5 mph78%30.01 "Hg10 mi
12:55 AM73 °FClear.3 mph83%30.01 "Hg10 mi
12:15 AM75 °FPassing clouds.6 mph78%30.01 "Hg10 mi
Weather by CustomWeather, © 2015

See weather overviewHow to use our weather pages